Tracking 30970 objects as of 3-Jul-2025
HD Live streaming from Space Station
objects crossing your sky now

ONEWEB-0504

Track ONEWEB-0504 now!
10-day predictions
ONEWEB-0504 is classified as:


NORAD ID: 54122
Int'l Code: 2022-138K
Perigee: 1,191.5 km
Apogee: 1,194.4 km
Inclination: 87.9 °
Period: 109.1 minutes
Semi major axis: 7563 km
RCS: Unknown
Launch date: October 22, 2022
Source: United Kingdom (UK)
Launch site: SRIHARIKOTA (SRI)
Your satellite tracking list
FENGYUN 1C DEB
Track 1 satellite(s)




NASA's NSSDC Master Catalog

Two Line Element Set (TLE):
1 54122U 22138K   25183.91610324  .00000009  00000-0 -93006-5 0  9998
2 54122  87.9211  14.3881 0001906  99.0480 261.0868 13.19724232130767
Source of the keplerian elements: AFSPC